GFSNIL_sfc_30mbdewp_024.txt.gz
Dewpoint
31 30 27 28 28 27 27 28 28 28 29 29 30 36 38 37 37 36 36 35 34 32
29 29 28 28 28 28 28 28 28 28 28 29 28 29 34 37 36 36 36 34 33 32
29 29 30 29 28 28 27 28 27 27 28 27 28 30 32 37 36 34 31 31 32 30
30 30 30 29 29 28 27 27 27 27 27 27 29 29 28 28 29 30 31 31 30 30
30 31 30 30 29 29 28 28 27 27 26 27 30 28 26 27 28 30 28 28 28 27
30 31 30 29 29 29 28 28 28 27 26 27 29 27 27 27 27 28 28 27 27 27
31 31 30 30 30 29 29 29 27 27 27 28 29 29 28 27 26 26 25 25 25 22
31 32 31 29 29 30 30 28 27 28 28 29 29 30 29 26 24 23 22 22 20 19
33 32 30 28 27 28 28 28 28 28 29 29 29 29 29 25 23 21 21 21 20 18
31 29 27 26 26 26 27 28 28 27 28 28 29 29 28 25 21 19 21 22 19 18
28 27 28 29 30 30 30 29 27 27 28 28 29 30 28 23 19 19 23 22 20 20
30 31 30 31 31 32 30 28 27 27 27 28 29 30 28 20 18 21 22 23 22 21
32 33 33 33 32 30 29 27 28 28 28 28 28 30 27 21 20 20 22 23 22 20
36 35 34 32 30 28 28 28 27 28 29 27 27 27 27 25 20 20 21 22 21 21

GFSNIL_sfc_30mbdewp_027.txt.gz
Dewpoint
39 39 33 29 29 29 28 29 29 29 29 29 30 35 37 37 37 36 35 35 34 33
33 33 31 30 29 29 30 29 29 28 29 29 28 29 31 35 36 36 35 35 32 32
32 31 30 29 28 28 30 30 29 28 28 27 28 30 31 35 37 33 32 31 31 32
30 31 30 29 30 30 30 29 28 28 27 26 28 29 30 29 28 29 30 31 31 30
30 31 30 30 30 30 28 29 28 28 27 27 28 29 27 26 27 27 28 28 29 28
30 30 30 29 29 30 29 29 28 28 27 27 28 29 28 27 28 28 28 28 27 27
32 31 30 31 30 30 30 29 28 27 27 28 28 29 29 28 27 27 27 27 27 27
34 32 32 31 31 31 30 29 28 28 29 30 30 29 29 28 27 26 25 24 21 20
34 34 32 31 30 31 30 29 28 28 29 29 30 29 30 29 27 25 23 22 21 20
34 31 29 28 28 28 29 30 30 31 28 28 29 29 30 30 26 23 22 21 21 19
29 30 31 30 31 31 33 34 33 29 28 28 28 29 31 30 24 22 21 22 22 20
31 31 32 33 34 35 35 31 29 28 27 28 28 29 31 28 22 20 20 23 22 21
35 36 36 36 36 35 31 29 29 28 29 29 27 29 31 28 22 21 21 23 23 25
39 38 37 36 35 32 29 28 27 26 27 28 28 28 30 30 22 22 22 22 22 22

GFSNIL_sfc_30mbdewp_030.txt.gz
Dewpoint
48 45 41 33 31 29 29 29 30 30 30 30 34 35 37 36 36 36 35 34 34 33
46 43 38 36 32 31 31 30 31 30 31 30 28 30 33 34 36 37 35 34 34 33
43 42 39 34 32 33 32 30 31 31 30 29 28 29 31 32 35 36 35 34 31 31
40 37 36 34 35 31 31 32 32 30 29 28 28 30 30 33 35 32 29 30 31 30
36 37 35 32 31 31 31 31 29 30 28 28 28 30 30 28 27 27 27 28 29 30
34 32 30 30 31 32 31 30 29 29 28 27 28 29 29 28 27 27 28 28 28 27
32 31 31 32 31 31 31 30 29 29 28 28 29 29 29 29 28 28 28 28 28 27
32 33 33 33 32 32 31 30 29 29 29 30 32 30 29 29 29 28 27 27 27 27
36 35 34 32 31 31 31 30 29 30 30 33 32 29 30 31 29 28 26 25 24 21
37 34 33 32 30 29 29 32 34 35 35 34 30 30 30 30 30 28 26 24 23 22
33 31 32 31 31 34 35 37 37 36 33 30 28 28 29 29 31 27 26 24 22 21
33 33 34 35 36 37 37 37 36 33 33 29 28 29 29 31 30 26 24 22 22 22
37 37 37 37 37 37 36 33 33 29 29 28 28 28 29 31 29 25 23 22 23 25
38 38 38 37 36 36 36 33 29 27 27 27 28 28 28 30 29 26 24 23 23 23

GFSNIL_sfc_30mbdewp_033.txt.gz
Dewpoint
51 50 47 42 42 38 36 32 33 33 35 36 38 38 38 38 37 38 37 36 35 33
53 51 47 43 42 39 35 33 34 35 34 34 34 37 37 35 36 38 39 37 37 35
54 51 49 45 42 37 35 32 34 34 33 32 32 32 34 33 35 36 37 36 35 34
52 51 48 44 41 38 37 33 33 34 32 31 31 32 33 33 33 35 36 35 32 31
49 47 45 44 42 40 35 33 33 33 31 31 30 32 32 33 31 34 33 30 30 30
46 45 44 43 42 38 34 33 33 31 30 29 30 31 32 32 31 30 29 29 30 29
43 43 43 40 36 34 33 33 31 31 30 31 30 31 34 37 31 31 30 30 31 30
39 37 36 35 35 34 33 32 31 32 32 32 33 37 39 34 31 31 30 31 31 30
37 35 36 36 34 34 32 32 31 31 33 35 38 39 35 32 31 31 31 30 30 29
37 36 36 35 33 32 32 34 37 38 37 37 39 35 31 30 30 31 30 30 29 28
35 33 33 33 34 37 39 39 38 39 39 37 34 35 35 29 30 30 30 30 29 28
34 34 37 37 38 38 38 39 38 37 36 35 37 33 30 29 30 30 29 29 28 27
36 37 37 38 38 38 38 37 36 35 35 34 30 29 29 30 31 30 29 29 27 26
38 38 38 38 38 37 36 34 33 31 31 30 29 29 29 29 29 30 29 28 28 27

GFSNIL_sfc_30mbdewp_036.txt.gz
Dewpoint
58 57 55 53 48 43 43 42 41 38 36 35 40 39 39 35 38 35 33 34 32 28
57 56 54 52 47 44 44 42 39 38 36 39 37 38 35 36 34 33 36 35 33 31
56 56 55 53 48 47 46 43 39 38 36 38 37 35 35 33 32 35 35 33 32 31
57 56 56 55 51 49 47 43 39 38 36 35 35 32 33 30 33 32 31 32 30 29
57 57 55 53 51 50 46 43 39 38 35 35 31 29 30 31 27 32 33 29 30 28
55 54 53 51 50 48 46 44 40 36 33 32 30 31 31 31 35 38 34 29 28 28
52 50 50 49 48 48 46 43 38 35 34 33 30 31 33 39 41 38 32 30 30 29
49 49 48 47 45 43 40 37 35 34 33 33 34 34 40 41 39 39 34 31 31 30
42 42 41 39 38 37 35 33 34 35 34 34 37 40 39 38 38 38 32 30 30 30
39 38 37 36 34 33 33 35 37 37 36 36 36 39 37 38 35 35 32 29 29 28
37 36 35 34 34 36 38 38 38 37 36 36 38 38 37 37 37 31 29 28 27 26
36 36 37 37 38 38 38 38 37 38 38 38 37 36 37 34 29 26 26 26 26 26
36 36 37 37 37 38 38 38 37 37 36 36 36 33 31 30 28 27 27 27 26 27
37 38 38 38 38 37 35 33 31 31 30 30 30 29 30 30 29 29 29 28 28 27

GFSNIL_sfc_30mbdewp_039.txt.gz
Dewpoint
57 57 58 58 56 54 52 50 48 45 43 42 42 40 43 42 42 38 38 35 35 34
58 57 58 58 57 55 50 46 46 44 42 42 41 42 42 42 38 37 38 37 38 36
57 58 58 57 56 53 48 47 45 44 42 41 42 40 40 36 36 37 36 37 35 34
55 56 57 57 55 51 49 47 45 43 42 41 42 41 38 35 33 34 35 35 37 36
56 56 57 57 56 53 51 49 48 43 41 41 40 37 34 33 33 32 36 37 40 38
57 57 57 56 55 53 51 49 46 42 42 39 36 34 33 33 37 39 40 40 39 34
55 55 54 53 52 50 49 48 46 43 39 36 33 33 34 40 40 40 39 39 36 34
54 52 51 50 50 49 48 47 41 38 36 35 36 37 38 38 39 38 39 40 39 36
49 48 48 47 45 44 40 38 37 36 37 37 36 38 40 39 36 38 38 39 37 34
42 41 40 38 36 36 35 35 36 36 37 37 38 38 39 37 37 38 37 37 37 34
40 38 36 35 35 34 36 37 37 37 37 37 37 38 38 38 37 37 36 33 29 27
37 37 38 38 37 37 37 37 37 38 38 38 39 38 38 37 34 30 29 27 26 26
37 37 37 38 38 37 38 38 37 38 38 38 36 35 36 33 31 29 29 28 28 28
37 37 37 37 38 37 36 34 33 31 30 29 29 29 31 31 30 31 30 29 29 30

GFSNIL_sfc_30mbdewp_042.txt.gz
Dewpoint
58 58 58 58 58 56 55 55 55 53 50 47 45 44 44 47 45 43 41 41 38 35
59 58 58 58 58 57 56 55 52 49 47 45 45 44 45 43 43 41 41 39 36 38
60 58 57 58 59 57 56 49 49 48 46 45 44 44 43 43 42 38 38 36 39 38
59 58 59 59 59 58 51 50 48 48 46 44 44 43 42 41 39 37 37 40 40 40
58 56 57 57 58 54 51 50 48 47 45 43 44 43 42 39 32 37 38 39 41 41
56 57 57 57 57 52 51 50 49 47 44 42 43 42 38 35 39 40 41 41 40 40
57 57 56 55 54 53 52 50 47 44 43 42 39 36 37 40 40 39 39 41 40 40
55 54 53 52 51 51 50 49 47 43 39 37 37 39 40 39 38 38 39 40 39 40
53 52 52 51 50 48 45 41 39 37 37 36 38 38 38 39 38 38 38 37 38 39
49 48 45 43 41 39 38 38 38 37 37 37 37 38 38 38 37 37 38 38 37 37
42 40 38 37 36 37 37 37 38 38 38 37 37 37 38 37 38 38 37 37 37 35
39 38 37 37 37 37 38 37 37 36 37 38 38 38 38 38 37 35 32 31 30 31
39 39 39 39 40 39 39 38 38 38 39 38 37 37 36 34 32 31 30 30 29 28
39 39 39 39 39 38 38 37 36 36 34 33 32 30 27 26 26 23 23 24 24 25

GFSNIL_sfc_30mbdewp_045.txt.gz
Dewpoint
56 55 55 56 56 56 56 56 55 53 53 53 52 48 44 47 47 46 45 43 41 37
57 57 56 56 57 57 57 55 54 54 53 51 50 46 45 46 47 45 43 41 39 37
57 57 57 58 57 56 56 54 54 52 51 49 47 46 45 45 45 43 42 40 38 40
58 58 57 57 57 57 54 52 51 50 48 47 45 45 45 44 43 40 39 41 41 42
59 58 57 57 57 57 54 51 50 49 47 46 45 44 44 42 40 40 41 42 41 41
58 59 58 58 57 55 52 51 49 48 47 45 44 43 42 39 40 41 42 41 41 40
57 57 56 56 55 53 51 50 49 47 46 45 43 41 40 41 41 41 41 41 40 40
55 55 54 54 53 52 51 50 47 45 43 42 40 40 41 40 40 39 39 39 40 40
53 53 52 52 51 50 48 46 44 41 40 38 39 40 39 40 39 38 37 38 38 38
52 52 50 46 45 43 42 40 39 39 38 38 39 40 39 38 38 38 38 38 37 37
45 42 41 40 39 38 38 38 36 37 37 37 37 37 38 37 37 37 38 38 37 34
39 38 37 37 37 37 37 38 37 37 36 36 36 37 37 38 38 36 32 31 28 28
38 37 37 37 37 37 37 36 37 38 39 39 38 37 37 35 31 28 25 23 24 25
40 40 39 39 39 39 38 37 37 36 36 32 29 27 27 25 22 21 20 21 21 22

GFSNIL_sfc_30mbdewp_048.txt.gz
Dewpoint
54 55 54 52 53 54 55 56 57 56 54 54 53 52 49 49 48 46 46 46 45 45
54 55 55 55 55 56 56 56 56 56 54 53 53 51 48 47 47 47 46 44 44 39
52 54 55 56 55 56 56 55 54 54 53 52 51 50 47 46 47 46 45 43 40 41
54 55 57 56 56 56 56 55 54 53 52 51 50 48 46 45 46 44 42 41 41 42
56 57 58 58 58 58 56 54 54 52 51 50 48 47 46 45 44 42 41 42 42 42
57 58 57 58 59 59 56 54 52 51 49 48 47 46 45 45 43 42 42 42 42 42
58 58 58 58 58 56 54 53 51 50 49 48 47 46 44 42 42 42 42 42 42 41
58 58 58 57 55 54 53 52 50 49 48 46 44 43 41 41 41 41 41 41 40 41
57 56 55 54 53 52 50 49 48 46 44 42 41 41 41 40 40 40 39 38 40 39
55 54 53 51 50 49 47 45 43 42 41 40 40 40 40 39 39 38 38 38 38 38
51 50 48 48 46 43 43 43 41 40 40 40 40 39 38 38 37 37 38 37 34 31
46 44 43 42 42 40 39 38 38 38 37 38 38 38 37 37 37 34 31 28 27 26
42 41 40 38 38 38 37 36 36 36 36 36 36 37 37 36 32 28 25 23 23 23
38 38 38 37 37 37 37 36 37 36 33 32 33 32 31 29 25 24 21 19 19 21

GFSNIL_sfc_30mbdewp_051.txt.gz
Dewpoint
50 51 53 52 52 51 52 53 54 56 57 57 56 57 56 54 52 50 47 45 45 44
48 50 51 54 53 52 53 53 55 57 56 57 56 55 53 52 50 48 47 47 46 45
48 50 52 53 54 54 54 55 55 56 55 55 54 53 51 49 48 47 47 46 45 42
49 51 53 54 54 55 56 56 56 55 55 54 52 51 49 48 47 47 46 44 43 41
50 52 53 54 56 56 56 56 56 56 55 54 52 51 49 47 46 46 44 43 42 42
52 53 53 55 56 57 57 57 57 55 54 52 51 50 48 47 46 45 44 43 42 42
52 54 55 56 57 57 57 57 54 53 53 52 50 48 47 47 45 43 43 43 43 43
53 55 57 57 57 57 58 56 54 52 52 49 48 47 46 44 43 42 42 42 42 41
55 56 57 57 57 57 54 53 52 51 50 48 47 44 43 43 42 42 42 41 40 40
56 56 57 56 54 52 51 50 48 47 47 45 43 42 41 41 41 40 40 40 39 38
57 56 54 52 51 49 47 47 45 44 43 43 41 41 40 39 39 38 38 38 37 31
53 51 50 48 47 45 44 43 43 42 42 41 39 39 38 38 37 34 31 29 27 28
49 48 46 45 43 42 41 40 39 38 39 39 38 38 37 36 33 29 25 24 23 24
44 44 42 40 39 38 38 37 35 33 33 35 36 36 35 33 30 27 23 21 19 20

GFSNIL_sfc_30mbdewp_054.txt.gz
Dewpoint
47 47 47 48 47 49 49 49 50 52 54 54 55 55 56 55 54 53 52 51 48 46
48 48 47 48 51 51 51 52 52 53 55 56 56 56 56 56 55 53 52 51 47 45
48 48 49 50 51 52 52 52 52 53 54 55 56 56 56 55 54 52 51 49 47 45
47 48 48 50 51 53 54 54 53 53 54 55 55 55 54 54 52 51 49 47 47 45
48 48 49 49 51 53 54 55 55 55 55 55 54 53 53 52 50 49 48 46 45 44
48 48 49 50 51 53 54 54 55 55 55 55 55 53 52 52 50 49 47 46 44 43
49 50 50 50 51 53 54 54 55 55 55 56 55 53 52 51 49 47 46 45 44 43
48 50 51 52 53 53 55 55 55 56 56 54 53 52 51 49 48 46 45 44 43 43
49 49 50 52 53 54 55 56 56 56 54 52 51 50 48 48 46 45 43 42 42 42
51 51 52 53 55 56 56 56 54 52 51 50 49 46 45 44 44 43 42 41 41 39
53 53 54 55 55 55 54 52 51 49 49 46 44 43 42 42 41 41 40 40 37 34
54 55 54 53 52 50 48 46 45 44 44 43 40 40 40 39 38 36 34 32 31 30
53 52 51 48 46 45 44 42 40 40 41 40 38 38 38 36 33 30 28 26 27 27
49 47 45 42 42 41 39 37 35 33 34 35 36 36 35 33 31 28 25 23 22 21

GFSNIL_sfc_30mbdewp_057.txt.gz
Dewpoint
52 52 51 51 50 50 49 48 49 52 53 53 53 54 55 55 56 56 55 54 52 52
50 50 50 50 51 51 51 51 51 51 51 52 52 53 53 54 55 56 55 55 54 53
50 49 50 50 50 50 50 51 51 51 51 51 52 53 54 55 56 56 55 55 54 53
50 50 50 50 50 50 51 51 51 51 51 51 53 55 55 55 55 55 54 55 54 54
50 50 50 50 50 51 51 52 52 52 52 52 54 54 55 55 55 55 53 53 52 52
50 50 49 50 50 51 51 52 53 54 54 54 54 54 54 54 54 54 53 52 51 50
49 49 49 49 49 50 51 51 52 53 54 54 55 55 54 54 54 53 52 51 51 49
49 49 49 50 50 51 51 52 52 53 54 54 55 55 55 54 53 52 50 50 48 47
49 49 50 50 50 51 51 52 53 54 53 55 55 55 53 54 52 52 50 46 45 44
49 49 49 50 50 51 52 53 53 54 55 55 55 53 51 51 51 49 47 44 42 41
51 50 50 50 50 51 53 53 54 54 54 55 53 50 48 46 46 44 43 42 41 37
52 51 52 52 52 54 53 52 51 50 49 48 45 44 43 43 41 38 37 36 36 34
52 53 54 54 53 49 48 45 44 42 42 42 40 39 40 38 35 33 31 30 31 31
52 50 48 46 44 42 40 38 35 34 35 37 37 36 36 35 33 30 29 28 26 26

GFSNIL_sfc_30mbdewp_060.txt.gz
Dewpoint
55 53 52 53 52 52 51 50 52 53 52 50 50 51 52 53 52 53 54 54 55 53
54 54 52 51 52 52 52 51 51 52 53 52 51 52 52 52 52 53 54 54 54 54
54 53 52 52 51 51 51 51 50 50 51 51 51 51 51 53 52 52 53 54 53 54
52 52 52 51 51 52 52 51 51 51 51 50 50 50 50 50 50 50 51 54 55 54
52 52 51 52 52 53 53 53 52 52 52 51 51 51 51 51 50 51 51 53 55 55
52 52 52 52 52 52 52 53 52 52 52 52 52 52 51 51 52 53 54 55 55 54
51 52 52 52 52 52 52 51 51 51 51 52 52 51 51 51 54 54 55 54 53 54
50 51 51 51 51 51 51 51 51 51 52 52 53 52 53 53 54 54 53 54 54 54
49 50 50 50 50 50 50 50 50 50 51 51 52 52 52 53 54 54 53 53 52 53
49 49 50 50 50 50 50 51 50 51 51 52 53 53 52 51 54 54 54 53 52 47
49 49 49 50 50 50 51 51 52 52 52 53 54 53 52 52 53 54 53 50 47 44
50 50 49 50 50 51 51 52 53 53 53 54 55 52 52 49 46 44 41 41 40 38
50 51 50 51 51 52 53 53 49 45 44 44 45 43 44 45 40 36 34 33 34 33
51 51 52 53 51 47 43 40 37 36 35 36 37 37 37 37 35 32 30 30 30 31

GFSNIL_sfc_30mbdewp_063.txt.gz
Dewpoint
55 55 53 52 52 53 52 53 55 57 56 55 54 55 55 54 54 53 54 55 55 54
56 55 54 53 53 53 53 53 54 55 55 54 54 55 53 52 51 52 53 53 55 55
56 56 55 54 54 53 53 53 53 54 55 54 53 52 52 51 50 51 53 53 54 54
55 55 56 55 54 54 54 53 53 52 53 52 52 51 51 52 52 51 52 53 54 53
54 55 55 55 55 55 54 53 53 53 52 51 51 52 51 51 51 52 52 52 53 52
54 55 55 55 55 54 54 54 53 53 52 51 51 52 52 52 52 52 52 52 52 52
53 53 54 54 54 54 54 54 53 53 53 53 52 52 53 52 53 52 52 53 53 52
52 53 53 54 54 54 54 54 54 54 54 54 54 53 53 53 53 53 53 53 53 54
50 51 52 53 53 54 54 54 54 53 53 53 53 51 50 52 53 52 52 53 54 55
50 50 52 53 52 53 53 54 53 53 53 53 53 52 50 49 52 53 54 54 54 54
50 51 51 52 52 52 52 53 53 53 53 53 53 52 50 49 51 53 54 54 54 54
49 49 50 51 52 52 52 53 53 53 53 52 53 52 50 50 51 53 48 44 44 45
48 49 49 51 52 53 53 53 53 51 44 43 45 42 46 47 45 39 35 33 33 34
48 49 50 51 51 52 50 43 39 35 35 35 36 36 37 38 37 33 31 30 30 31

GFSNIL_sfc_30mbdewp_066.txt.gz
Dewpoint
54 53 53 53 51 52 52 51 50 54 56 56 55 56 56 54 54 54 54 53 54 53
55 53 53 54 54 53 52 52 53 56 56 57 57 55 53 53 52 53 54 54 53 53
55 55 54 53 53 53 53 52 51 54 56 55 56 56 54 54 52 52 52 53 52 53
55 55 55 54 53 53 53 53 52 52 54 55 55 55 54 53 52 52 51 50 51 53
54 55 56 55 55 55 54 53 53 53 53 54 54 54 54 54 52 52 51 50 51 51
55 54 55 56 55 55 55 55 54 53 53 53 54 54 53 52 51 50 50 50 51 51
54 55 55 55 56 55 56 55 54 54 53 53 52 52 52 52 51 51 50 50 51 51
54 55 56 56 56 56 56 55 55 54 53 53 53 53 52 51 51 51 51 51 52 52
50 53 54 54 55 56 56 55 55 54 54 53 52 52 51 51 52 52 52 52 53 53
50 50 53 54 54 54 54 54 54 54 54 54 54 53 51 50 52 53 53 53 53 53
52 51 51 52 53 53 54 54 54 54 54 54 54 53 52 50 50 52 52 52 52 53
51 51 51 51 52 53 53 54 54 54 54 54 54 46 48 49 51 51 47 41 40 43
49 50 51 51 52 53 53 53 53 44 40 39 40 40 45 47 47 43 36 33 33 34
42 44 48 51 50 52 46 41 37 35 33 34 34 36 38 40 38 34 31 30 30 31

GFSNIL_sfc_30mbdewp_069.txt.gz
Dewpoint
54 54 53 51 52 53 53 53 52 55 56 55 54 55 55 55 55 55 54 54 55 55
54 53 53 52 51 52 53 52 52 52 56 56 55 54 55 55 54 55 54 53 55 55
54 53 53 54 52 51 51 52 51 51 54 55 55 55 54 54 54 53 54 54 53 52
55 54 53 53 54 53 52 52 52 51 53 55 55 55 55 54 53 52 51 51 51 52
55 55 55 54 53 54 53 53 52 52 52 52 54 53 53 53 53 53 52 51 50 51
54 55 55 55 55 54 54 53 53 53 51 51 53 53 53 53 52 52 52 51 51 50
53 54 54 54 54 55 54 54 53 53 53 52 52 53 54 54 54 53 53 52 52 51
55 54 54 54 54 56 55 54 54 54 53 52 52 52 53 54 53 53 53 53 52 51
54 55 55 54 54 54 56 55 55 55 54 54 53 52 51 53 53 52 52 51 51 51
52 54 55 55 55 54 55 56 55 55 55 55 54 52 51 50 51 52 51 51 51 51
46 47 51 55 55 55 56 55 55 55 55 55 55 53 52 50 50 52 52 52 53 53
41 42 45 50 53 54 54 54 54 55 55 55 54 45 46 49 50 52 49 43 41 44
36 38 39 43 44 53 54 54 54 44 40 40 41 39 43 48 48 45 38 33 34 35
32 33 34 38 39 41 44 41 38 35 33 33 34 34 37 41 42 37 32 31 30 31

GFSNIL_sfc_30mbdewp_075.txt.gz
Dewpoint
54 54 53 54 54 55 55 55 56 55 56 56 56 56 57 56 55 55 54 53 51 51
54 53 53 53 54 54 55 54 54 53 55 55 55 56 56 55 54 54 54 54 52 51
54 53 53 52 53 53 53 53 53 53 54 55 55 55 55 55 54 54 54 54 53 53
54 54 53 52 52 53 53 53 53 53 53 54 54 54 54 53 53 54 53 53 53 52
54 54 54 54 53 52 52 53 53 53 53 53 54 54 53 53 53 53 52 53 53 53
53 54 53 54 54 53 52 52 52 53 52 52 52 53 54 54 53 53 53 53 53 52
54 54 54 53 53 54 54 53 52 52 52 52 52 52 52 52 53 53 53 53 53 52
54 54 54 54 54 54 54 54 54 53 52 52 52 52 51 51 52 52 52 52 52 53
45 49 54 54 54 54 54 54 54 54 53 53 53 52 51 51 51 51 52 52 52 52
41 42 43 44 48 53 54 54 55 54 54 53 53 52 51 50 51 51 51 51 52 52
36 38 39 41 42 43 44 47 53 54 54 54 54 40 44 49 51 52 52 52 52 53
33 34 35 36 37 39 41 40 39 35 35 38 35 33 35 37 47 52 52 53 47 42
29 30 31 34 34 35 35 32 30 28 29 30 30 32 34 36 40 44 45 33 32 32
27 28 29 30 31 31 30 29 28 28 28 28 30 30 32 33 33 32 31 29 29 30

GFSNIL_sfc_30mbdewp_078.txt.gz
Dewpoint
54 54 54 55 55 56 56 56 57 57 57 55 57 57 55 55 55 54 54 52 50 49
54 54 53 54 55 55 55 56 56 57 57 57 56 56 56 56 56 56 55 54 54 54
54 54 53 53 53 54 55 55 54 54 56 56 56 56 56 55 56 56 55 55 54 54
54 53 53 52 53 53 53 54 54 54 54 55 55 55 56 55 55 55 55 55 54 54
54 54 53 53 52 53 53 53 53 53 54 54 54 55 54 54 54 54 53 53 53 53
53 54 54 54 53 52 52 53 53 53 53 53 54 54 54 54 53 53 53 53 53 53
53 53 53 54 54 53 53 52 52 53 53 53 52 53 53 54 53 53 53 53 53 52
52 54 54 54 53 53 54 53 53 52 52 52 53 52 52 52 52 53 53 53 53 53
44 45 45 48 52 54 54 54 54 54 53 52 52 52 51 51 52 51 51 51 52 53
39 39 41 42 43 44 45 46 51 52 54 54 53 37 39 46 51 51 51 51 51 51
35 36 37 38 38 39 41 38 37 36 37 40 34 34 35 37 42 50 52 52 51 45
31 33 34 35 35 35 34 33 31 31 31 32 31 33 34 36 41 45 38 33 32 32
29 30 31 32 32 32 31 30 29 28 29 29 29 31 33 35 39 34 31 30 30 31
27 28 29 29 30 30 29 28 27 27 27 27 29 29 29 30 31 29 27 27 27 28

GFSNIL_sfc_30mbdewp_081.txt.gz
Dewpoint
55 55 55 55 56 56 56 57 58 57 56 55 54 54 54 54 53 54 53 53 53 52
55 54 54 55 56 56 57 57 57 57 57 56 54 54 53 54 54 54 53 53 53 52
55 55 54 55 55 56 56 57 57 57 56 56 55 54 52 51 53 54 55 55 54 54
54 54 54 54 54 55 55 56 56 56 57 56 55 55 55 53 54 53 54 56 55 55
54 54 53 53 54 54 54 55 55 55 55 56 56 56 55 54 54 54 53 54 55 54
54 54 53 54 54 54 54 54 54 54 54 54 55 55 56 56 55 55 55 55 54 54
53 54 54 54 55 54 53 53 54 54 54 54 54 54 54 55 55 55 55 55 54 54
48 53 54 54 55 55 54 53 53 53 54 54 54 53 54 54 54 54 54 54 54 54
42 43 44 46 47 49 49 48 54 53 53 53 49 37 40 47 53 53 53 53 53 54
38 39 39 40 41 42 40 40 40 39 42 37 35 34 36 37 45 50 52 52 51 52
35 36 37 37 37 36 35 34 33 34 34 33 32 33 35 37 42 46 37 35 35 35
32 33 34 34 33 32 31 30 30 30 30 30 30 32 34 40 38 33 31 31 31 31
30 31 31 31 31 30 29 28 28 28 28 28 28 30 31 33 32 29 28 27 27 29
28 28 29 29 29 29 28 28 28 27 27 28 28 27 27 28 28 26 25 25 26 27

GFSNIL_sfc_30mbdewp_084.txt.gz
Dewpoint
54 55 55 56 57 57 57 56 57 56 56 55 56 56 56 55 54 54 55 54 54 54
54 54 55 56 56 56 57 58 57 57 56 55 55 55 55 55 54 54 54 54 54 53
55 54 54 54 55 55 56 57 57 57 57 55 55 54 54 54 55 54 54 54 54 53
55 54 55 54 54 54 55 56 56 57 57 56 54 54 52 51 51 53 54 55 54 54
54 55 54 54 54 55 55 55 56 57 56 56 55 54 52 50 49 49 49 52 55 54
54 54 54 53 55 55 54 54 55 55 56 56 56 55 53 52 51 51 52 51 50 49
53 53 53 53 55 54 54 54 54 54 54 55 56 56 55 54 53 53 53 54 53 52
48 51 53 54 54 54 54 54 53 54 54 54 54 43 45 55 55 56 55 56 56 56
43 43 44 45 46 46 46 44 45 46 47 41 37 35 37 42 53 55 54 54 54 55
39 39 40 40 39 38 38 38 38 38 37 35 34 34 36 37 44 48 41 39 40 42
36 36 36 36 35 34 34 33 33 33 33 32 32 34 38 40 38 33 32 32 33 33
34 34 34 32 32 31 30 30 29 30 30 30 30 32 35 34 31 29 28 29 30 29
33 33 32 31 30 30 29 29 29 28 29 29 28 29 31 31 29 28 27 28 28 28
30 30 30 30 30 30 30 29 29 28 28 27 28 27 28 29 28 27 27 26 26 26

GFSNIL_sfc_30mbdewp_087.txt.gz
Dewpoint
54 53 53 56 57 58 57 57 56 56 56 57 57 58 58 58 58 59 56 55 54 53
54 54 53 56 58 58 57 57 57 56 55 56 57 57 57 56 56 56 56 55 54 53
54 54 54 55 56 57 58 58 57 56 56 55 56 56 56 56 56 55 55 56 55 54
55 55 55 55 56 55 56 56 56 57 56 55 55 55 55 54 54 52 53 55 55 54
55 55 54 54 54 54 54 55 56 56 57 55 55 54 53 53 52 52 52 53 54 53
55 55 54 54 55 56 55 55 56 56 57 56 55 54 53 51 51 51 50 50 51 53
53 54 54 54 55 55 54 55 55 55 56 56 56 55 54 52 50 49 49 49 50 51
50 53 53 53 51 53 52 53 53 55 55 52 43 39 44 52 54 53 52 53 53 53
44 45 45 44 43 43 42 42 42 41 40 39 36 35 37 43 51 51 51 51 50 47
39 39 38 38 37 37 36 36 36 35 35 34 35 37 38 42 42 39 37 37 37 37
36 35 35 34 33 33 33 33 32 32 32 32 33 35 34 34 33 31 31 31 31 32
34 33 32 31 31 31 30 30 30 31 31 30 31 33 33 31 30 29 29 29 30 30
33 33 32 32 31 31 30 29 29 29 29 30 29 31 31 30 29 28 27 28 28 28
33 33 33 33 33 32 31 30 29 28 28 27 28 28 29 30 29 28 27 26 26 27

GFSNIL_sfc_30mbdewp_090.txt.gz
Dewpoint
56 55 55 57 57 57 57 57 56 56 57 58 58 58 59 59 58 57 56 57 56 52
56 55 55 58 58 58 57 56 56 56 56 57 57 58 58 58 57 57 56 58 56 54
55 55 57 58 58 58 58 57 56 56 56 56 57 57 57 57 58 57 57 58 57 54
55 55 55 57 57 58 59 58 57 56 56 55 56 56 56 56 56 56 56 56 56 55
54 54 55 56 56 56 57 58 57 57 56 55 55 56 55 55 55 54 54 54 54 54
56 56 55 55 55 55 56 56 56 57 56 55 55 54 54 53 52 52 52 53 53 53
55 55 55 55 56 56 56 56 57 57 57 56 55 54 53 53 53 53 53 53 53 53
50 51 51 50 51 50 49 47 47 46 43 42 41 39 46 52 52 50 50 50 49 50
44 43 42 42 42 42 41 40 40 38 38 38 39 38 40 47 47 48 48 47 45 41
38 38 37 37 37 36 36 35 35 35 36 35 35 36 39 39 37 36 35 35 36 37
35 34 34 33 33 33 33 33 32 32 33 33 33 33 33 33 32 31 31 31 32 32
33 32 32 31 31 31 31 31 30 30 30 31 32 33 32 31 29 28 28 30 31 31
33 32 32 32 31 31 30 29 28 28 29 30 30 32 31 30 29 28 27 28 29 30
32 32 32 33 33 32 31 29 28 27 27 27 28 29 31 30 28 27 26 25 26 27

GFSNIL_sfc_30mbdewp_093.txt.gz
Dewpoint
57 56 56 57 57 57 56 56 56 56 56 57 58 59 59 59 59 59 57 57 56 56
57 56 57 57 58 57 57 56 55 55 56 57 58 59 59 59 59 59 57 57 57 56
56 56 58 57 57 57 57 56 56 55 55 56 57 57 58 58 58 58 57 57 57 57
55 57 58 57 57 57 57 56 56 55 55 55 56 57 57 57 57 56 56 57 56 56
55 56 57 57 58 58 58 57 56 56 55 55 56 56 56 55 56 56 56 56 56 56
55 55 55 57 57 58 58 58 57 56 55 54 54 55 55 55 55 54 54 54 54 55
55 55 56 56 56 56 55 56 57 56 55 54 54 54 54 53 53 53 53 54 53 53
50 50 49 49 48 47 46 45 46 45 44 44 44 44 51 53 53 52 53 53 52 46
44 43 42 42 41 41 40 40 40 39 39 39 39 40 45 51 48 47 49 45 42 39
38 38 37 37 36 36 36 36 36 35 35 34 35 36 37 38 37 37 36 37 38 38
33 34 34 34 33 33 33 32 33 33 33 33 33 33 33 33 33 32 32 33 34 36
32 32 32 31 31 31 30 30 30 31 32 31 32 32 31 30 30 29 30 31 32 32
32 32 31 31 30 29 29 28 28 28 29 31 31 32 31 29 28 27 28 29 30 32
30 31 31 31 31 29 28 27 26 26 27 28 30 31 31 30 28 26 26 26 27 29